Boscobel, WI

12:36 PM CDT on March 29, 2017 (GMT -0500)
Boscobel

Weather History for KOVS - November, 2012

Change the Weather History Date:

Thursday, November 8, 2012

  Actual Average (KPDC) Record (KPDC)
Temperature  
Mean Temperature 41 °F -  
Max Temperature 52 °F 49 °F 75 °F (1999)
Min Temperature 30 °F 31 °F 2 °F (1991)
Degree Days  
Heating Degree Days 24    
Moisture  
Dew Point 34 °F    
Average Humidity 81    
Maximum Humidity 100    
Minimum Humidity 57    
Precipitation  
Precipitation 0.00 in - - ()
Sea Level Pressure  
Sea Level Pressure 30.10 in    
Wind  
Wind Speed 3 mph (SSW)    
Max Wind Speed 13 mph    
Max Gust Speed 16 mph    
Visibility 8 miles    
Events      
Averages and records for this station are not official NWS values.
T = Trace of Precipitation, MM = Missing Value Source: NWS Daily Summary

Daily Weather History Graph

Daily Weather History Graph

Search for Another Location

Airport or City:

Trip Planner

Search our weather history database for the weather conditions in past years. The results will help you decide how hot, cold, wet, or windy it might be!

Date:

Astronomy

Nov. 08, 2012 Rise Set
Actual Time 6:47 AM CST 4:45 PM CST
Civil Twilight 6:16 AM CST 5:15 PM CST
Nautical Twilight 5:42 AM CST 5:49 PM CST
Astronomical Twilight 5:09 AM CST 6:22 PM CST
Moon 12:33 AM CST (11/8) 1:34 PM CST (11/8)
Length of Visible Light 10h 58m
Length of Day
9h 58m
Waning Crescent, 32% of the Moon is Illuminated
Nov 8
Waning Crescent
Nov 13
New
Nov 20
First Quarter
Nov 28
Full
Dec 6
Last Quarter

Hourly Weather History & Observations

Time (CST) Temp. Windchill Dew Point Humidity Pressure Visibility Wind Dir Wind Speed Gust Speed Precip Events Conditions
12:53 AM 39.9 °F - 34.0 °F 79% 30.17 in 10.0 mi Calm Calm - N/A   Overcast
1:53 AM 39.9 °F - 34.0 °F 79% 30.17 in 10.0 mi Calm Calm - N/A   Overcast
2:53 AM 39.0 °F - 34.0 °F 82% 30.17 in 10.0 mi Calm Calm - N/A   Mostly Cloudy
3:53 AM 39.9 °F - 34.0 °F 79% 30.15 in 10.0 mi Calm Calm - N/A   Overcast
4:53 AM 39.0 °F - 33.1 °F 79% 30.15 in 10.0 mi Calm Calm - N/A   Mostly Cloudy
5:53 AM 34.0 °F - 30.9 °F 89% 30.15 in 10.0 mi Calm Calm - N/A   Mostly Cloudy
6:53 AM 30.0 °F - 30.0 °F 100% 30.15 in 7.0 mi Calm Calm - N/A   Clear
7:53 AM 36.0 °F - 34.0 °F 93% 30.16 in 9.0 mi Calm Calm - N/A   Clear
8:53 AM 43.0 °F 37.7 °F 35.1 °F 74% 30.16 in 10.0 mi South 9.2 mph - N/A   Clear
9:53 AM 45.0 °F 38.9 °F 35.1 °F 68% 30.16 in 10.0 mi SSW 12.7 mph - N/A   Clear
10:53 AM 48.0 °F - 36.0 °F 63% 30.14 in 10.0 mi South 10.4 mph 16.1 mph N/A   Clear
11:53 AM 50.0 °F - 36.0 °F 59% 30.11 in 10.0 mi SSW 12.7 mph - N/A   Clear
12:53 PM 52.0 °F - 37.0 °F 57% 30.08 in 10.0 mi SSW 11.5 mph - N/A   Clear
1:53 PM 52.0 °F - 37.0 °F 57% 30.05 in 10.0 mi SSW 12.7 mph - N/A   Clear
2:53 PM 52.0 °F - 37.0 °F 57% 30.03 in 10.0 mi South 9.2 mph - N/A   Clear
3:53 PM 51.1 °F - 37.0 °F 59% 30.03 in 10.0 mi South 8.1 mph - N/A   Clear
4:53 PM 48.9 °F - 37.0 °F 64% 30.03 in 10.0 mi SSW 5.8 mph - N/A   Clear
5:53 PM 45.0 °F - 36.0 °F 71% 30.04 in 10.0 mi Calm Calm - N/A   Clear
6:53 PM 39.0 °F - 35.1 °F 86% 30.04 in 8.0 mi Calm Calm - N/A   Clear
7:53 PM 35.1 °F - 34.0 °F 96% 30.05 in 8.0 mi Calm Calm - N/A   Clear
8:53 PM 33.1 °F - 33.1 °F 100% 30.06 in 7.0 mi Calm Calm - N/A   Clear
9:53 PM 33.1 °F - 32.0 °F 96% 30.08 in 4.0 mi Calm Calm - N/A   Clear
10:29 PM 32.0 °F - 32.0 °F 100% 30.06 in 2.0 mi Calm Calm - N/A   Clear
10:53 PM 32.0 °F - 30.9 °F 96% 30.07 in 3.0 mi Calm Calm - N/A   Clear
11:04 PM 30.2 °F - 30.2 °F 100% 30.05 in 1.8 mi Calm Calm - N/A   Clear
11:18 PM 32.0 °F - 30.2 °F 93% 30.05 in 3.0 mi Calm Calm - N/A   Clear
11:53 PM 30.0 °F - 30.0 °F 100% 30.07 in 2.5 mi Calm Calm - N/A   Clear